Wind_Speed
6 9 11 12 11 10 11 13 12 11 12 15 16 12 14 15 9 12 10 14 11 12 14 12 12 13 13 13 14 15 16 16 16
8 9 11 11 10 10 10 11 11 9 10 14 13 10 10 13 13 11 9 12 10 10 10 10 11 12 12 11 13 13 14 15 14
10 11 12 12 10 10 9 10 10 9 7 11 11 9 10 13 9 10 11 9 7 8 9 10 10 10 10 9 11 11 12 13 14
12 11 13 11 10 9 8 9 9 8 7 9 10 8 10 12 11 8 10 8 8 8 8 7 7 8 8 8 9 9 10 10 12
13 12 12 11 9 10 7 8 7 7 8 9 10 10 10 7 8 10 8 8 6 6 6 6 5 6 5 6 7 7 8 9 10
14 14 14 12 10 12 9 9 9 7 9 9 12 8 7 5 8 4 8 8 6 5 5 4 3 3 3 3 4 5 6 7 8
14 14 14 13 11 13 13 11 9 8 9 10 12 7 5 6 4 3 9 7 5 4 4 3 2 2 2 1 2 3 4 6 7
17 18 18 16 14 15 15 13 12 12 6 8 13 6 4 5 7 3 9 7 5 4 3 3 2 1 0 1 2 3 3 4 6
25 22 21 19 19 16 16 15 14 12 16 10 11 5 8 8 9 7 9 10 8 6 5 4 3 2 3 3 4 4 4 5 6
24 23 24 21 19 19 18 16 14 14 13 16 9 12 10 10 9 9 9 11 10 9 8 6 5 5 5 6 6 6 7 6 7
25 25 25 24 23 21 23 20 19 18 16 16 15 14 13 11 10 10 9 10 11 11 10 9 8 7 7 8 9 9 9 10 10
27 28 26 27 25 23 23 20 20 19 18 18 16 15 15 14 13 12 9 9 12 14 13 12 11 10 9 9 11 14 13 13 14
33 29 28 28 24 23 24 23 22 20 20 19 18 17 16 17 17 16 14 14 12 12 14 14 14 14 14 12 11 11 11 11 12
33 32 32 30 26 28 25 25 24 24 21 21 18 19 19 18 16 18 17 16 13 13 13 12 14 16 17 16 15 13 12 13 12
31 35 31 30 32 31 28 26 25 26 24 21 22 20 21 19 20 18 18 18 20 19 18 13 15 15 18 18 17 15 14 13 12
33 32 36 33 34 32 32 28 29 26 26 22 21 21 21 22 21 22 22 22 21 20 19 19 18 17 16 17 18 17 15 14 13
35 37 36 36 35 28 31 30 27 29 28 20 18 2 10 21 26 25 24 24 22 24 23 20 20 21 20 19 18 18 17 15 13
37 37 36 35 33 32 31 31 32 26 31 31 14 3 4 7 22 29 30 28 27 24 22 23 23 22 22 22 21 18 17 18 16
31 37 39 39 38 31 35 33 35 30 26 31 35 16 8 4 2 19 30 30 27 26 25 23 23 24 25 24 23 22 19 19 20
32 33 39 38 37 38 36 33 33 35 30 28 28 27 25 13 3 3 8 26 28 25 24 25 25 26 25 24 25 24 23 21 20
Wind_Direction
136 138 137 133 121 119 115 116 120 124 123 122 120 112 98 103 103 111 103 104 92 86 83 86 82 79 74 71 69 64 62 59 58
167 153 150 144 127 121 118 121 125 126 126 131 127 116 104 119 110 100 97 93 98 90 86 91 79 81 76 70 69 67 63 61 56
180 163 160 153 139 129 127 128 130 138 138 141 130 111 73 112 103 118 108 106 102 98 87 94 81 82 77 72 70 64 63 59 56
190 174 168 160 148 145 139 138 139 144 148 144 144 126 97 115 118 123 129 120 111 100 94 96 83 75 74 71 67 65 62 60 57
194 181 179 173 163 162 154 150 152 159 156 150 146 124 104 113 140 147 135 132 120 121 110 101 90 83 82 67 57 55 56 51 50
199 190 190 184 178 168 172 173 169 171 167 161 151 147 133 140 160 175 155 152 145 136 133 126 112 89 79 67 49 45 41 45 43
205 194 199 195 187 181 181 189 174 176 180 171 167 140 136 158 199 215 161 159 163 154 156 160 153 121 87 38 36 29 24 28 25
197 200 200 200 195 190 191 194 185 174 178 189 180 166 182 178 208 220 179 169 178 188 194 191 191 209 232 315 336 348 355 3 359
201 204 205 206 202 196 201 203 195 186 200 215 200 181 199 188 206 238 203 185 190 198 213 227 236 253 275 293 305 313 317 329 334
207 206 206 208 203 196 204 205 200 195 207 212 213 210 207 202 212 230 225 209 203 207 211 220 233 253 270 282 289 297 302 306 312
210 207 206 205 202 201 211 201 210 207 209 213 212 208 211 210 213 234 231 231 222 220 222 226 234 242 256 271 284 292 297 299 302
213 210 203 202 207 209 209 207 212 210 208 216 211 211 213 216 216 232 241 248 239 237 233 230 238 247 252 263 277 281 289 291 295
215 209 203 205 208 210 208 207 209 215 210 214 214 214 214 218 217 219 230 242 242 244 242 244 241 244 248 256 264 271 278 287 295
217 213 210 209 209 212 213 209 211 212 212 211 217 219 218 220 218 223 222 231 242 247 252 255 249 250 254 259 264 266 270 278 286
216 216 212 216 214 214 214 213 211 214 213 209 213 221 219 222 225 228 224 228 236 239 243 248 251 257 255 260 262 264 266 270 275
221 216 215 215 211 212 207 212 210 213 213 210 215 221 221 224 225 230 232 233 236 242 247 248 252 258 258 259 261 262 264 262 268
223 222 216 212 216 213 207 208 207 213 209 206 199 220 231 233 231 229 231 232 236 236 237 240 244 247 255 261 267 263 258 256 255
226 222 219 216 215 211 206 205 207 206 211 213 184 172 214 191 224 228 230 231 232 237 238 237 239 245 252 255 263 265 261 259 252
229 228 222 220 218 211 207 206 210 206 206 214 215 211 173 183 194 221 226 229 231 234 237 242 245 247 248 251 250 256 259 264 260
229 232 229 223 221 220 212 213 211 208 205 206 214 226 239 242 174 193 200 224 233 235 238 244 246 248 253 251 252 255 262 263 258
Height
831 831 834 834 835 837 837 839 841 842 843 844 845 845 846 846 847 847 847 848 848 848 848 848 848 848 848 847 847 847 846 845 844
831 833 834 836 837 838 840 841 843 845 845 846 846 847 848 849 849 850 850 850 851 851 850 850 850 850 850 849 849 849 848 848 846
831 833 835 837 838 840 841 843 844 846 847 848 848 848 848 850 850 851 853 853 853 853 853 852 852 852 852 851 851 851 850 850 849
832 834 835 837 839 840 842 844 845 847 848 849 850 850 850 851 852 852 853 854 855 855 855 854 854 854 854 853 853 852 852 851 850
833 834 836 838 839 840 842 844 846 847 848 849 851 851 852 853 853 853 854 855 855 855 856 856 856 855 855 854 855 854 853 853 852
832 834 835 837 838 840 842 842 844 846 848 850 851 851 852 854 853 854 854 855 856 856 856 856 856 856 856 855 856 855 855 854 853
831 833 835 836 838 839 840 842 843 845 847 849 850 851 851 854 854 854 855 856 857 856 856 856 856 856 856 856 856 856 855 856 854
830 831 833 835 836 838 839 841 842 844 846 848 849 850 850 853 853 854 855 856 857 857 857 857 857 856 856 856 856 856 856 856 855
827 828 830 832 834 836 838 839 841 843 845 846 848 848 851 852 851 852 853 854 855 855 856 857 857 857 857 856 856 856 856 855 855
823 825 828 829 832 834 835 837 839 841 843 845 846 848 849 851 850 851 851 852 853 853 854 854 855 856 856 856 855 856 856 855 854
820 821 824 827 829 831 833 835 837 839 841 843 845 846 848 849 850 850 850 851 852 852 853 853 853 853 854 854 854 855 855 854 854
815 817 821 823 825 828 831 832 834 836 838 840 842 843 845 846 848 848 849 850 850 850 851 851 851 852 852 852 853 853 852 852 852
811 813 815 818 822 824 826 828 831 833 834 837 839 840 842 843 844 845 846 846 846 847 848 849 850 850 850 850 849 849 849 849 849
804 808 811 814 818 820 822 824 826 829 831 833 836 837 838 840 841 841 842 843 844 845 845 845 846 847 847 846 846 846 846 846 845
799 802 806 809 813 814 817 820 823 825 827 829 831 833 834 836 837 838 839 839 840 842 842 843 843 843 843 843 843 843 843 843 842
794 796 799 803 805 807 810 815 817 820 823 826 828 829 831 832 832 834 835 836 836 837 838 839 840 840 840 840 840 840 841 841 840
787 790 793 795 799 803 805 808 811 815 818 821 824 828 828 826 827 829 830 831 832 832 832 834 836 836 837 837 838 837 837 838 838
778 782 786 789 793 795 798 802 805 808 813 815 818 823 823 820 822 822 823 825 826 827 828 828 830 832 833 833 834 835 835 834 834
772 775 779 781 785 788 791 794 798 802 805 810 811 810 810 814 817 816 816 820 820 822 824 824 825 826 827 828 828 828 829 831 832
768 770 772 775 778 781 783 787 791 793 797 801 805 806 807 807 808 813 812 814 816 817 818 820 820 820 822 823 824 825 826 825 825